Tracking 19634 objects as of 21-May-2019
HD Live streaming from Space Station
objects crossing your sky now

COSMOS 2133

Track COSMOS 2133 now!
COSMOS 2133 is classified as:


NORAD ID: 21111
Int'l Code: 1991-010A
Perigee: 35,770.6 km
Apogee: 35,810.5 km
Inclination: 14.7 °
Period: 1,435.9 minutes
Semi major axis: 42161 km
RCS: 12.1 m2 (large)
Launch date: February 14, 1991
Source: Commonwealth of Independent States (former USSR) (CIS)
Launch site: TYURATAM MISSILE AND SPACE COMPLEX (TTMTR)
aabbcc
Your satellite tracking list
Your tracking list is empty




NASA's NSSDC Master Catalog

Two Line Element Set (TLE):
1 21111U 91010A   19139.67820574 -.00000099 +00000-0 +00000-0 0  9998
2 21111 014.7195 003.3995 0004733 062.9423 126.8283 01.00283176103515
Source of the keplerian elements: AFSPC